Regional Weather Roundup
Issued by NWS Upton, NY

Current Version | Previous Version | Text Only | Print | Product List | Glossary Off
Versions: 1 2 3 4 5 6 7 8 9 10 11 12 13 14 15 16 17 18 19 20 21 22 23 24 25 26 27 28 29 30 31 32 33 34 35 36 37 38 39 40 41 42 43 44 45 46 47 48 49 50

000
ASUS41 KOKX 051108
RWROKX

REGIONAL WEATHER ROUNDUP
NATIONAL WEATHER SERVICE NEW YORK NY
700 AM EDT TUE MAY 05 2015

NOTE: "FAIR" INDICATES FEW OR NO CLOUDS BELOW 12,000 FEET WITH NO
SIGNIFICANT WEATHER AND/OR OBSTRUCTIONS TO VISIBILITY.

NYZ071-072-176-178-NJZ106-104-051200-
NEW YORK CITY METRO AREA


CITY           SKY/WX    TMP DP  RH WIND       PRES   REMARKS
CENTRAL PARK   SUNNY     66  48  52 VRB5      30.19R
LAGUARDIA APRT MOSUNNY   67  48  50 VRB3      30.16R
KENNEDY INTL   MOSUNNY   58  51  78 S3        30.18R
NEWARK/LIBERTY MOSUNNY   65  49  56 SW6       30.17R
BRNX BOT. GARD   N/A     66  48  52 W7        30.17R
TETERBORO      SUNNY     62  49  62 CALM      30.16R
$$

NYZ177-179-078>081-051200-
LONG ISLAND NEW YORK

CITY           SKY/WX    TMP DP  RH WIND       PRES   REMARKS
FARMINGDALE    SUNNY     56  50  80 SW5       30.18R
ISLIP          PTSUNNY   57  51  80 SW6       30.17R
SHIRLEY        SUNNY     58  51  78 SW6       30.18R
WESTHAMPTON    SUNNY     56  50  80 SW10      30.19R
MONTAUK POINT    N/A     58  49  72 SW8       30.18R
$$

NYZ052-065-067-051200-
HUDSON VALLEY

CITY           SKY/WX    TMP DP  RH WIND       PRES   REMARKS
WHITE PLAINS   SUNNY     60  51  72 NW6       30.16R
NEWBURGH       PTSUNNY   63  50  63 W6        30.18R
MONTGOMERY     PTSUNNY   60  51  72 CALM      30.17R
POUGHKEEPSIE   PTSUNNY   62  52  69 CALM      30.17R
ALBANY         PTSUNNY   64  53  67 NW7       30.20R
$$

NJZ001-105-106-008-010-013-015-019>022-104-051200-
NEW JERSEY

CITY           SKY/WX    TMP DP  RH WIND       PRES   REMARKS
NEWARK/LIBERTY MOSUNNY   65  49  56 SW6       30.17R
TETERBORO      SUNNY     62  49  62 CALM      30.16R
CALDWELL       SUNNY     60  50  69 CALM      30.18R
MORRISTOWN     SUNNY     55  50  82 CALM      30.18R
SOMERVILLE     SUNNY     53  48  83 CALM      30.17R
SUSSEX         PTSUNNY   56  49  77 CALM      30.20R
ANDOVER          N/A     58  53  84 CALM      30.19R
TRENTON        SUNNY     61  50  67 SW3       30.19R
MILLVILLE      SUNNY     63  54  72 SW5       30.22R
ATLANTIC CITY  SUNNY     65  53  65 SW10      30.21R
WRIGHTSTOWN    SUNNY     62  52  69 SW7       30.17R
TOMS RIVER     SUNNY     63  52  67 CALM      30.19R
BELMAR         FAIR      63  46  55 SW7       30.19R
$$

PAZ047>061-062-071-051200-
EASTERN PENNSYLVANIA

CITY           SKY/WX    TMP DP  RH WIND       PRES   REMARKS
PHILADELPHIA   MOSUNNY   65  53  65 SW9       30.21R
ALLENTOWN      MOSUNNY   58  51  78 CALM      30.20R
SCRANTON       PTSUNNY   67  54  63 N9        30.22R
$$

CTZ002-004>006-009-010-012-RIZ004-006-007-MAZ004-011-015-051200-
SOUTHERN NEW ENGLAND
 IN CT

CITY           SKY/WX    TMP DP  RH WIND       PRES   REMARKS
BRADLEY INTL   CLOUDY    64  47  53 S3        30.16R
HARTFORD       PTSUNNY   61  49  64 SE9       30.17R
DANBURY        SUNNY     58  48  69 CALM      30.18R
WTRBRY/OXFORD  MOSUNNY   59  45  58 CALM      30.21R
BRIDGEPORT     SUNNY     59  50  72 SW5       30.16R
MERIDEN        MOSUNNY   58  50  75 CALM      30.18R
NEW HAVEN      PTSUNNY   58  49  72 CALM      30.17R
CHESTER        FAIR      59  46  63 W5        30.18R
GROTON         MOSUNNY   59  47  64 CALM      30.17R
WILLIMANTIC    PTSUNNY   61  49  64 CALM      30.17R

 IN RI

CITY           SKY/WX    TMP DP  RH WIND       PRES   REMARKS
PROVIDENCE     PTSUNNY   60  47  61 S6        30.16R
BLOCK ISLAND   SUNNY     54  46  76 SW18G25   30.18R
WESTERLY       MOSUNNY   57  48  72 SW6       30.18R

 IN MA

CITY           SKY/WX    TMP DP  RH WIND       PRES   REMARKS
BOSTON         CLOUDY    67  46  47 W9        30.13R
WORCESTER      CLOUDY    64  48  56 W9        30.16R
WESTFIELD      CLOUDY    65  52  62 NW8       30.16R
PROVINCETOWN   PTSUNNY   54  46  76 SW9       30.15R
NANTUCKET      MOSUNNY   53  47  79 SW13      30.19R
$$

ANZ330-335-338-340-345-350-353-355-051200-
COASTAL MARINE OBSERVATIONS


STATION/POSITION TIME  SKY/WX   TEMP    WIND        PRES    VSBY  WAVE
                                AIR SEA DIR/SP/G                  HT/PER
                 (UTC)          (F)     (DEG/KT/KT) (MB)    (MI)  (FT/S)
NY HARB ENTRANCE 1050            52 50  200/  8/ 10 1021.7          3/ 5
4S FIRE IS       1003               49                N/A           4/ 5
20S FIRE ISLAND  1050            52 48  220/ 12/ 14 1022.2          4/ 5
GREAT SOUTH BAY  1030            56 59  240/ 12/ 14   N/A
23SW MTP         1050            50 46  230/  8/  8 1022.2          4/ 5
HUDSON CANYON    NOT AVBL
KINGS POINT      1000            62 52  190/  6/  7 1020.5
EASTERN LI SOUND 1000            50     240/  4/  4   N/A
ROBBINS REEF     1000            64     270/  5/  6 1020.2
$$


>>>>>>>>>>>>>>>>>>>>>>>>>>>> KEY <<<<<<<<<<<<<<<<<<<<<<<<<<<
>                                                          <
>     SKY/WX - SKY CONDITION/PRESENT WEATHER               <
>     TMP    - TEMPERATURE IN FAHRENHEIT                   <
>     DP     - DEWPOINT IN FAHRENHEIT                      <
>     RH     - RELATIVE HUMIDITY IN PERCENT                <
>     WIND   - DIRECTION AND SPEED IN MPH                  <
>     PRES   - MEAN SEA LEVEL PRESSURE IN INCHES OF HG     <
>     WCI    - WIND CHILL INDEX                            <
>     VSB    - VISIBILITY IN MILES                         <
>     HX     - HEAT INDEX                                  <
>     TC     - TEMPERATURE IN CELSIUS                      <
>     VRB    - VARIABLE WIND DIRECTION                     <
>                                                          <
>>>>>>>>>>>>>>>>>>>>>>>>>>>> KEY <<<<<<<<<<<<<<<<<<<<<<<<<<<




USA.gov is the U.S. government's official web portal to all federal, state and local government web resources and services.